Regional Weather Roundup
Issued by NWS Cleveland, OH

Home | Current Version | Previous Version | Text Only | Print | Product List | Glossary On
Versions: 1 2 3 4 5 6 7 8 9 10 11 12 13 14 15 16 17 18 19 20 21 22 23 24 25 26 27 28 29 30 31 32 33 34 35 36 37 38 39 40 41 42 43 44 45 46 47 48 49 50
000
ASUS41 KCLE 221210
RWRCLE
OHIO REGIONAL WEATHER ROUNDUP
NATIONAL WEATHER SERVICE CLEVELAND, OH
800 AM EDT MON SEP 22 2014

NOTE: "FAIR" INDICATES FEW OR NO CLOUDS BELOW 12,000 FEET WITH NO
SIGNIFICANT WEATHER AND/OR OBSTRUCTIONS TO VISIBILITY.

OHZ001>008-015>018-024>027-034-035-043-044-221300-
   NORTHWEST OHIO

CITY           SKY/WX    TMP DP  RH WIND       PRES   REMARKS
DEFIANCE       CLOUDY   N/A N/A N/A N10       30.19R
FINDLAY        CLOUDY    48  39  71 N6        30.16R
TOLEDO EXPRESS CLOUDY    48  37  65 N7        30.17R
TOLEDO EXEC    CLOUDY    49  36  61 N8        30.18R
LIMA           CLOUDY    48  38  68 N8        30.17R
$$

OHZ009>014-019>023-028>033-038-089-221300-
   NORTHEAST OHIO

CITY           SKY/WX    TMP DP  RH WIND       PRES   REMARKS
CLE-HOPKINS    CLOUDY    52  42  69 NW13      30.13R
CLE-LAKEFRONT  CLOUDY    55  43  63 NW16      30.09R
CUY CO. ARPT   CLOUDY    54  46  76 N14       30.09R
LORAIN-ELYRIA  CLOUDY    54  41  61 N9        30.13R
ASHTABULA      CLOUDY    51  47  86 NW5       30.07R
AKRON-CANTON   CLOUDY    51  41  68 NW10      30.10R
WOOSTER        CLOUDY    50  46  86 NW7       30.13R
MANSFIELD      CLOUDY    47  43  86 NW5       30.14R
YOUNGSTOWN     CLOUDY    50  45  83 NW8       30.07R
$$

OHZ042-051>053-060>062-070>072-077>081-221300-
  SOUTHWEST OHIO

CITY           SKY/WX    TMP DP  RH WIND       PRES   REMARKS
CINC-COVINGTON PTCLDY    47  41  80 NW9       30.18R
CINC-LUNKEN    MOCLDY    48  41  76 N7        30.20R
HAMILTON       CLOUDY    47  42  83 N6        30.20R
DAYTON         CLOUDY    47  42  83 N8        30.19R
WRIGHT-PAT AFB CLOUDY    48  43  80 N6        30.18R
DAYTON GENERAL CLOUDY    47  42  83 NW9       30.17R
WILMINGTON     CLOUDY    49  43  80 NW9       30.16R
$$

OHZ036-037-039>041-045>050-054>059-063>069-073>076-082>088-221300-
  CENTRAL AND SOUTHEAST OHIO

CITY           SKY/WX    TMP DP  RH WIND       PRES   REMARKS
COLUMBUS       CLOUDY    53  42  66 N13       30.14R
OSU AIRPORT    CLOUDY    50  42  74 N10       30.15R
BOLTON FIELD   CLOUDY    48  45  87 NW9       30.16R
RICKENBACK AFB CLOUDY    51  43  75 N14       30.15R
NEWARK         CLOUDY    52  45  77 NW8       30.13R
MARION         CLOUDY    48  40  73 NW7       30.16R
LANCASTER      MOCLDY    51  45  79 N10       30.14R
ZANESVILLE     CLOUDY    52  46  80 NW6       30.12R
NEW PHILLY     CLOUDY    51  46  83 NW7       30.12R
$$


USA.gov is the U.S. government's official web portal to all federal, state and local government web resources and services.